Location: Camerons Lookout
(40.9833°S, 175.9333°E)
Time: 05:46:37
(UTC+00:00)

Cosmos 1025 Rocket - Pass Details

Date: 14 January 2026
Orbit: 588 x 608 km, 82.5° (Epoch: 17 February)

Event Time Altitude Azimuth Distance (km) Brightness Sun altitude
Rises 09:27:49 0° 190° (S) 2,889 7.5 -15.4°
Reaches altitude 10° 09:30:04 10° 190° (S) 1,973 6.5 -15.6°
Maximum altitude 09:34:26 79° 275° (W) 620 3.1 -16.2°
Enters shadow 09:37:02 23° 0° (N) 1,279 4.2 -16.5°
